Wind_Speed
8 8 8 8 8 9 9 10 10 10 10 10 11 11 11 11 11 11 11 11 11 11 10 11 10 10 10 11 12 12 12 12 13 13 13 13 13 13 13 13 14 14 14
7 8 9 9 9 9 10 10 10 9 9 10 11 11 12 12 12 12 11 11 10 11 11 11 11 11 11 11 11 11 12 13 13 13 13 13 13 14 14 14 14 15 15
7 7 8 9 9 9 10 10 9 9 10 10 11 12 12 12 12 12 12 11 11 11 11 12 11 11 12 12 11 11 12 13 13 13 13 14 14 14 14 13 13 14 14
7 7 7 8 8 8 8 9 9 9 9 10 11 11 12 12 12 12 12 12 12 12 12 12 11 11 12 11 12 12 12 12 12 13 13 13 14 14 14 13 13 13 14
7 7 7 8 8 8 8 7 7 8 9 9 10 10 10 11 11 12 12 11 11 12 12 12 12 12 12 11 11 12 12 13 13 14 14 15 14 14 14 14 14 14 14
7 7 7 8 8 8 8 7 8 8 8 9 9 9 10 10 11 11 11 11 12 12 12 12 12 13 13 12 12 12 13 13 14 14 14 15 15 15 14 15 15 15 15
8 8 8 8 8 8 8 8 8 8 8 8 9 9 10 10 10 11 12 12 12 12 13 13 13 13 13 13 14 14 14 14 14 14 15 15 14 15 15 15 16 16 16
7 8 7 8 8 8 8 8 8 9 9 9 10 10 10 10 10 11 11 11 12 12 13 13 13 13 14 14 14 15 15 15 15 15 15 15 15 15 15 15 16 16 16
7 8 9 9 9 9 9 9 10 9 9 9 9 9 10 10 11 11 11 11 12 12 12 13 13 13 13 13 14 14 15 15 15 15 15 15 15 15 15 15 15 16 16
9 10 10 10 10 10 10 10 10 10 10 10 10 10 10 11 11 11 11 12 12 12 12 12 13 13 13 13 14 14 14 15 15 16 16 16 16 16 16 15 15 16 16
10 11 10 10 10 10 10 10 11 11 11 11 11 11 11 11 11 11 11 12 12 12 12 13 13 14 14 14 14 15 15 15 16 16 16 16 16 16 16 17 17 16 17
11 11 11 10 10 10 11 11 11 11 11 12 11 11 12 12 12 12 11 12 12 13 13 13 13 14 14 15 15 15 15 15 15 16 16 16 16 17 17 18 18 18 18
11 11 12 11 11 11 12 12 12 12 12 12 12 13 13 12 13 13 13 13 13 13 13 13 14 14 15 15 15 15 15 15 15 16 16 16 17 18 18 18 19 19 19
13 13 13 13 13 13 13 13 13 13 13 13 13 14 13 13 13 13 13 12 13 13 13 14 14 14 15 15 16 16 16 16 16 16 17 17 18 18 19 19 19 20 20
14 14 14 14 14 14 14 14 14 14 14 14 14 14 14 14 14 14 14 13 13 14 14 14 15 15 16 16 16 16 17 18 17 18 18 18 18 19 19 20 20 21 21
15 15 15 15 16 15 15 15 16 16 16 15 15 15 15 15 15 15 15 15 15 15 15 15 15 15 16 16 17 18 18 18 18 18 19 19 19 20 20 20 21 21 22
16 16 16 17 17 17 17 17 17 17 17 17 17 16 17 17 16 17 16 16 16 16 16 16 16 16 17 17 17 18 18 18 19 19 19 20 20 21 21 21 22 22 23
17 17 17 18 18 18 18 18 19 19 19 18 18 17 17 17 17 17 17 17 17 17 17 18 18 17 18 18 19 18 19 19 20 20 21 21 22 22 22 23 23 24 24
17 18 18 18 18 19 19 20 20 20 20 20 20 20 19 19 19 19 18 18 18 18 19 19 19 19 19 19 19 20 20 21 21 21 22 22 22 22 23 24 24 24 24
18 18 19 20 20 21 21 21 21 20 20 21 21 21 21 21 20 20 20 19 20 20 20 21 21 21 21 21 21 21 22 22 22 23 22 22 22 23 23 24 24 24 24
20 20 20 21 22 22 21 20 20 21 21 21 22 22 22 22 22 22 22 21 21 21 21 21 21 22 22 22 22 23 23 23 23 23 23 23 23 24 24 24 25 24 24
21 21 21 22 22 22 22 22 22 22 22 22 22 22 22 23 23 22 23 23 23 22 22 22 22 23 22 23 23 23 24 24 24 23 23 24 24 24 25 24 24 24 24
22 23 23 23 23 24 24 24 24 24 24 23 23 23 24 24 23 23 24 24 23 23 23 23 24 23 24 23 23 23 24 24 24 24 25 25 24 24 25 25 24 24 24
24 24 25 25 25 25 25 25 26 26 25 25 25 25 25 25 25 25 25 25 25 25 24 24 24 24 24 24 24 24 25 25 25 26 26 26 26 26 26 25 25 25 25
26 26 25 26 26 26 26 27 27 27 27 27 27 27 27 27 26 26 26 26 26 26 26 26 25 25 25 26 26 26 26 26 27 27 28 27 27 27 27 26 26 26 27
27 26 27 27 27 28 28 28 28 28 28 29 29 29 28 28 28 28 28 27 27 27 28 28 27 27 26 27 27 27 28 28 28 28 29 29 28 27 27 27 27 28 28
Wind_Direction
274 272 271 271 271 270 270 269 267 268 265 262 264 266 264 265 264 266 269 271 272 272 272 273 277 278 273 267 255 255 255 256 257 259 261 260 261 262 260 256 258 259 260
274 273 275 273 271 269 271 268 266 265 267 265 264 266 266 267 267 267 267 268 269 268 268 270 274 276 273 267 260 260 262 260 260 261 261 260 260 260 258 259 259 258 258
289 287 284 281 276 274 272 268 269 270 271 269 268 269 270 271 271 269 268 267 266 264 264 267 270 271 270 269 265 263 264 263 262 263 262 261 259 259 260 259 257 254 255
286 286 292 289 285 281 279 275 277 278 279 277 274 269 268 269 270 272 269 267 268 267 266 266 268 268 269 266 263 263 263 261 260 261 260 261 262 262 262 257 253 252 254
286 286 294 292 289 287 284 282 283 282 282 282 281 278 273 268 271 271 267 268 272 272 270 269 267 266 265 263 262 263 261 259 260 261 260 261 263 262 260 256 255 254 257
286 288 291 291 290 288 288 289 290 286 282 284 284 282 278 272 271 270 271 273 275 275 273 272 270 270 268 266 263 262 264 264 264 262 263 263 262 262 265 261 262 261 261
285 287 292 295 294 291 292 290 292 287 284 283 282 284 282 277 276 276 275 275 277 276 274 274 272 272 271 268 265 264 264 267 269 269 269 268 266 265 265 265 263 261 260
291 292 293 293 291 291 294 294 294 294 293 290 286 283 279 279 278 277 277 276 277 276 275 275 274 273 272 271 269 270 270 271 270 269 269 268 266 265 265 264 262 261 259
295 297 298 295 292 292 292 293 295 295 293 290 289 286 282 280 281 282 280 280 278 276 275 274 274 273 274 276 274 271 271 271 270 269 269 269 267 266 265 265 262 261 261
297 301 305 298 292 289 291 294 294 292 293 291 290 288 286 286 285 283 283 283 281 279 278 277 275 275 276 277 276 275 274 273 272 270 270 269 267 267 267 266 265 263 262
295 297 299 297 294 290 289 289 288 288 291 291 290 289 288 288 287 283 281 280 280 279 278 276 276 277 277 276 277 277 276 274 272 271 269 268 267 267 268 268 267 266 265
293 292 294 294 292 291 291 290 288 287 289 290 289 287 288 287 287 284 282 280 281 282 280 277 276 276 275 275 277 278 277 276 273 270 268 268 267 267 268 268 267 266 265
289 290 290 290 291 291 290 290 288 287 287 288 288 287 286 286 287 286 284 282 281 282 281 280 278 276 275 276 277 277 276 275 273 270 269 269 268 269 270 270 268 266 265
286 287 287 286 288 288 288 288 289 288 288 288 286 286 285 286 286 286 286 285 283 282 282 283 281 280 280 280 279 279 277 276 274 272 271 271 270 270 271 272 271 269 267
284 284 284 284 285 285 287 287 287 287 288 287 286 285 285 285 285 285 284 284 284 283 283 283 283 284 283 282 282 281 279 278 275 274 273 273 272 271 271 272 272 271 271
281 282 282 282 282 283 285 285 285 284 284 285 283 281 281 283 284 285 283 282 281 281 281 280 282 285 286 285 283 282 281 279 278 276 275 273 272 272 272 273 273 272 272
279 281 282 282 282 282 282 283 283 283 281 281 281 280 280 281 283 283 282 281 281 281 281 281 281 285 287 286 284 282 281 281 280 278 276 275 275 274 273 273 273 272 272
277 278 280 281 281 282 282 282 282 281 280 279 279 279 281 281 282 282 281 281 281 281 282 283 282 283 285 286 284 283 281 281 281 279 278 278 277 276 276 275 274 273 272
280 279 279 279 280 281 282 282 281 279 277 277 278 279 281 281 282 281 280 280 280 280 281 283 284 284 284 285 284 282 281 281 281 280 279 278 278 278 278 277 276 274 273
282 283 281 279 278 280 281 281 280 279 278 277 277 278 279 281 280 280 280 280 281 282 282 281 283 284 283 284 284 283 282 282 282 281 280 280 280 281 281 279 279 276 274
282 281 282 281 280 279 279 280 279 279 277 277 276 275 276 277 277 277 279 280 280 280 282 282 282 283 284 284 283 282 281 282 282 281 279 280 281 283 284 283 280 277 274
281 281 282 282 281 278 277 277 278 277 277 277 278 275 276 276 277 277 279 279 280 279 280 281 284 285 284 283 283 282 281 282 281 280 281 282 281 282 285 284 281 278 274
281 282 282 282 280 277 276 277 276 276 275 276 276 276 276 276 277 278 279 280 280 279 280 281 283 286 284 282 282 283 282 283 280 280 281 282 283 282 283 283 281 278 275
283 285 283 280 278 276 276 277 277 275 273 274 275 275 276 277 278 277 279 280 280 278 279 280 281 284 283 281 281 282 282 283 282 281 281 281 282 283 281 281 280 279 279
282 283 284 280 277 276 275 276 277 276 274 274 274 275 275 275 276 277 278 279 280 279 279 279 281 283 283 281 281 282 282 282 282 282 282 281 280 281 280 278 278 278 279
281 282 282 280 277 277 276 276 276 275 275 274 274 275 275 274 275 277 278 278 278 279 280 279 279 281 283 283 282 281 282 281 281 282 282 281 280 279 278 279 279 280 280
Height
5863 5862 5862 5861 5861 5860 5860 5859 5859 5859 5858 5858 5858 5858 5859 5858 5858 5858 5857 5857 5857 5856 5856 5855 5854 5853 5852 5851 5851 5852 5853 5853 5854 5854 5854 5854 5854 5855 5854 5854 5855 5855 5855
5861 5860 5860 5859 5858 5858 5857 5857 5857 5856 5856 5856 5856 5856 5856 5856 5855 5855 5855 5854 5854 5853 5853 5852 5852 5851 5850 5850 5850 5850 5850 5851 5851 5851 5851 5851 5851 5851 5851 5851 5852 5852 5852
5859 5858 5858 5857 5856 5856 5855 5855 5854 5854 5854 5854 5853 5853 5853 5853 5852 5852 5852 5851 5851 5850 5850 5850 5849 5849 5848 5848 5847 5847 5848 5848 5848 5848 5848 5848 5848 5848 5848 5848 5848 5849 5849
5857 5857 5856 5855 5855 5854 5853 5853 5852 5852 5851 5851 5851 5850 5850 5850 5849 5849 5849 5848 5848 5847 5847 5847 5846 5846 5846 5845 5845 5844 5844 5844 5844 5844 5844 5844 5844 5845 5845 5844 5845 5845 5845
5856 5855 5854 5854 5853 5852 5851 5851 5850 5849 5849 5849 5848 5847 5847 5847 5846 5846 5846 5845 5845 5844 5844 5844 5843 5843 5842 5842 5841 5841 5841 5841 5841 5841 5841 5841 5841 5841 5841 5841 5841 5841 5842
5854 5853 5853 5852 5851 5850 5849 5849 5848 5847 5847 5846 5845 5845 5844 5844 5844 5843 5843 5843 5842 5841 5841 5840 5840 5839 5839 5838 5838 5838 5837 5837 5837 5837 5837 5837 5837 5837 5837 5837 5837 5838 5838
5852 5851 5851 5850 5849 5848 5847 5847 5846 5845 5845 5844 5843 5842 5842 5841 5841 5840 5840 5840 5839 5838 5838 5837 5837 5836 5835 5835 5835 5834 5834 5834 5833 5833 5833 5833 5833 5833 5833 5833 5833 5833 5834
5850 5849 5849 5848 5847 5846 5845 5845 5844 5843 5842 5842 5841 5840 5839 5839 5838 5837 5837 5836 5836 5835 5834 5834 5833 5833 5832 5832 5831 5831 5830 5830 5830 5829 5829 5829 5829 5829 5829 5829 5829 5829 5829
5847 5847 5846 5845 5845 5844 5843 5842 5842 5841 5840 5839 5838 5837 5837 5836 5835 5834 5834 5833 5833 5832 5831 5830 5830 5829 5829 5828 5828 5827 5827 5826 5826 5825 5825 5825 5825 5825 5825 5825 5825 5825 5825
5845 5844 5843 5843 5842 5841 5840 5840 5839 5838 5838 5836 5835 5834 5834 5833 5832 5831 5831 5830 5829 5828 5828 5827 5826 5826 5825 5825 5824 5823 5823 5822 5822 5821 5821 5821 5821 5821 5821 5820 5820 5820 5821
5843 5842 5841 5840 5839 5838 5838 5837 5836 5835 5834 5833 5832 5831 5830 5829 5829 5828 5827 5826 5826 5825 5824 5823 5822 5822 5821 5821 5820 5819 5819 5818 5818 5817 5817 5817 5816 5816 5816 5816 5816 5816 5816
5840 5839 5838 5837 5836 5835 5835 5834 5833 5832 5831 5830 5829 5828 5827 5826 5825 5824 5824 5823 5822 5821 5820 5819 5819 5818 5817 5817 5816 5816 5815 5814 5813 5813 5812 5812 5812 5812 5812 5811 5811 5811 5811
5837 5836 5835 5834 5833 5832 5831 5830 5829 5828 5827 5826 5825 5825 5824 5823 5822 5821 5820 5819 5818 5817 5816 5815 5815 5814 5813 5813 5812 5811 5810 5809 5809 5808 5807 5807 5807 5807 5806 5806 5806 5806 5806
5833 5833 5832 5830 5829 5828 5827 5826 5825 5824 5824 5823 5821 5820 5819 5819 5818 5817 5816 5815 5814 5813 5812 5811 5811 5810 5809 5808 5807 5806 5806 5805 5804 5803 5803 5802 5802 5801 5801 5800 5800 5800 5800
5829 5828 5828 5827 5826 5824 5823 5822 5821 5820 5819 5818 5817 5816 5815 5814 5813 5813 5812 5811 5810 5809 5808 5807 5806 5806 5804 5803 5803 5801 5800 5800 5799 5798 5797 5797 5796 5796 5795 5795 5794 5794 5793
5825 5824 5823 5822 5821 5820 5819 5818 5817 5816 5815 5814 5813 5812 5811 5810 5809 5808 5807 5806 5806 5805 5804 5803 5802 5801 5800 5799 5798 5796 5795 5794 5794 5793 5792 5791 5790 5790 5789 5789 5788 5787 5787
5820 5819 5818 5817 5816 5815 5814 5813 5811 5811 5810 5809 5808 5807 5806 5805 5804 5803 5802 5801 5801 5800 5799 5798 5797 5796 5795 5794 5792 5791 5790 5789 5788 5787 5786 5785 5784 5783 5783 5782 5781 5780 5780
5814 5813 5813 5812 5810 5809 5808 5807 5806 5805 5804 5803 5802 5802 5801 5800 5799 5798 5797 5796 5795 5794 5794 5792 5791 5790 5789 5788 5787 5786 5784 5783 5782 5781 5780 5779 5778 5777 5776 5775 5774 5773 5772
5808 5807 5807 5806 5805 5804 5802 5801 5800 5799 5798 5797 5796 5796 5795 5794 5793 5792 5791 5790 5790 5789 5788 5787 5785 5784 5783 5782 5781 5780 5778 5777 5775 5774 5773 5772 5771 5770 5769 5767 5766 5764 5763
5802 5801 5800 5799 5798 5797 5796 5794 5793 5792 5791 5790 5790 5789 5789 5788 5787 5786 5785 5784 5783 5783 5782 5781 5779 5778 5777 5776 5774 5773 5772 5770 5769 5767 5766 5765 5764 5763 5761 5760 5758 5757 5755
5796 5795 5794 5793 5791 5790 5789 5787 5786 5785 5784 5784 5783 5782 5782 5781 5780 5779 5779 5778 5777 5776 5775 5774 5773 5772 5770 5769 5768 5766 5765 5763 5762 5761 5759 5758 5757 5756 5754 5752 5751 5749 5748
5789 5788 5787 5785 5784 5783 5782 5781 5779 5779 5778 5777 5776 5775 5775 5774 5773 5773 5772 5771 5770 5769 5768 5767 5766 5765 5763 5762 5761 5759 5758 5756 5755 5754 5753 5751 5749 5748 5747 5745 5743 5742 5741
5782 5781 5779 5778 5776 5775 5774 5773 5772 5771 5771 5770 5769 5769 5768 5767 5766 5765 5764 5764 5763 5762 5762 5760 5759 5758 5756 5755 5754 5752 5750 5749 5748 5747 5745 5744 5742 5741 5739 5738 5737 5735 5735
5775 5773 5772 5770 5769 5767 5766 5765 5764 5763 5763 5762 5761 5761 5760 5760 5759 5758 5757 5756 5756 5755 5754 5753 5752 5750 5749 5747 5746 5745 5743 5742 5740 5739 5738 5737 5735 5733 5732 5731 5730 5729 5728
5767 5766 5764 5762 5761 5759 5758 5757 5756 5755 5754 5754 5753 5753 5752 5751 5751 5750 5749 5748 5748 5747 5745 5744 5743 5742 5741 5739 5738 5737 5735 5734 5733 5731 5730 5729 5727 5726 5724 5723 5722 5721 5720
5759 5757 5755 5754 5752 5751 5750 5749 5747 5746 5746 5745 5744 5744 5743 5742 5742 5741 5740 5740 5739 5738 5737 5736 5735 5733 5732 5731 5729 5728 5727 5725 5724 5723 5721 5720 5719 5717 5717 5715 5714 5712 5711